User: anonymous   Login
Location: Newark
(48.7667°N, 7.9833°E)
Time: 23:47:51
(UTC+00:00)
Language:

XW-2A - Orbit

View from above orbital plane
View from above orbital plane
View from above satellite
View from above satellite

Ground track
Ground track

The orbit data is extracted from the following two-line orbital elements,

1 40903U 15049E   19261.79404532  .00001328  00000-0  33011-4 0  9994
2 40903  97.3290 305.0478 0013779 165.1830 254.6996 15.42088002224443
Epoch (UTC): 18 September 2019 19:03:25
Eccentricity: 0.0013779
inclination: 97.3290°
perigee height: 430 km
apogee height: 449 km
right ascension of ascending node: 305.0478°
argument of perigee: 165.1830°
revolutions per day: 15.42088002
mean anomaly at epoch: 254.6996°
orbit number at epoch: 22444

The dashed part of the orbit path shows where the satellite is in the earth's shadow,  

DLR